Notices

What's New in latest Release from April 7th, 2021:

- Updated Glossary, including Speed of Maximum Gust, and Total Hourly Precipitation

- Updated national and regional climate services offices contacts and prices information

- Addition of station inventory lists for 1981-2010, 1971-2000, and 1961-1990 Normals.

If you haven't already, please take our survey and provide feedback about our website: https://eccc.sondage-survey.ca/f/LanguageSelection.aspx?s=442ca660-fcf1-47c0-95a9-59707d6fd709

Hourly Data Report for April 01, 2017

KUGAARUK CLIMATE
NUNAVUT

68°32'15.060" N
89°47'47.020" W
15.80 m
2303094
71407
NBB

Download Data

Hourly Data (April 2017)
Hourly Data Report for April 1, 2017
TIME
LST
Temp Definition
°C
Dew Point Definition
°C
Rel Hum Definition
%
Precip. Amount Definition
mm

Wind Dir Definition
10's deg

Wind Spd Definition
km/h
Visibility Definition
km
Stn Press Definition
kPa
Hmdx Definition


Wind Chill Definition


Weather Definition


00:00 -20.3 -23.8 73 0.0 29 7   102.50   -26 LegendNANA
01:00 -16.0 -23.5 52 0.0 22 32   102.43   -28 LegendNANA
02:00 -16.1 -23.9 51 0.0 22 34   102.39   -28 LegendNANA
03:00 -15.9 -23.5 52 0.0 22 34   102.31   -28 LegendNANA
04:00 -19.2 -25.5 57 0.0 27 12   102.36   -27 LegendNANA
05:00 -16.5 -24.1 52 0.0 22 22   102.30   -27 LegendNANA
06:00 -15.9 -23.6 52 0.0 22 33   102.23   -28 LegendNANA
07:00 -15.1 -22.5 53 0.0 22 36   102.18   -27 LegendNANA
08:00 -14.3 -22.7 49 0.0 22 29   102.14   -25 LegendNANA
09:00 -13.9 -23.0 46 0.0 21 11   102.12   -20 LegendNANA
10:00 -13.3 -20.7 54 0.0 21 26   102.05   -23 LegendNANA
11:00 -12.7 -19.7 56 0.0 22 24   102.01   -22 LegendNANA
12:00 -12.2 -19.3 56 0.0 20 23   101.96   -21 LegendNANA
13:00 -12.0 -18.8 57 0.0 21 25   101.93   -21 LegendNANA
14:00 -11.5 -18.5 56 0.0 20 20   101.88   -20 LegendNANA
15:00 -12.0 -18.0 61 0.0 20 23   101.84   -21 LegendNANA
16:00 -12.4 -18.3 61 0.0 16 13   101.80   -19 LegendNANA
17:00 -12.5 -18.2 63 0.0 14 5   101.75   -16 LegendNANA
18:00 -12.1 -17.2 66 0.0 16 11   101.71   -18 LegendNANA
19:00 -12.7 -17.8 66 0.0 9 8   101.68   -18 LegendNANA
20:00 -12.0 -17.3 65 0.0 17 17   101.62   -20 LegendNANA
21:00 -12.1 -17.3 65 0.0 13 11   101.61   -18 LegendNANA
22:00 -11.9 -17.5 63 0.0 20 5   101.56   -15 LegendNANA
23:00 -12.2 -18.0 62 0.0 11 12   101.53   -19 LegendNANA

Notes on Data Quality.

Legend

  • E = Estimated
  • M = Missing
  • NA = Not Available*
  • [empty] = Indicates an unobserved value
Date modified: